Location: R�serve Fauniques des Laurentides
(47.3100°N, 71.1900°W)
Time: 18:09:17
(UTC-04:00)

Cosmos 1674 - Visible Passes

Search period start: 22 May 2015 00:00
Search period end: 01 June 2015 00:00
Orbit: 507 x 532 km, 82.5° (Epoch: 22 May)

Date Brightness Start Highest point End Pass type
(mag) Time Alt. Az. Time Alt. Az. Time Alt. Az.
22 May 2.9 02:15:20 43° SSE 02:16:25 64° E 02:20:20 10° NNE visible
22 May 5.0 03:51:01 10° W 03:52:46 12° WNW 03:54:22 10° NW visible
23 May 3.2 02:01:40 42° SE 02:02:37 54° E 02:06:29 10° NNE visible
23 May 4.9 03:36:45 10° W 03:38:52 14° WNW 03:40:56 10° NNW visible
24 May 3.4 01:48:00 39° SE 01:48:49 46° E 01:52:37 10° NNE visible
24 May 4.8 03:23:05 12° W 03:24:58 16° WNW 03:27:24 10° NNW visible
25 May 3.6 01:34:19 36° ESE 01:35:01 39° E 01:38:44 10° NNE visible
25 May 4.6 03:09:24 15° W 03:11:04 18° WNW 03:13:48 10° NNW visible
26 May 3.8 01:20:36 32° ESE 01:21:13 34° E 01:24:49 10° NNE visible
26 May 4.5 02:55:41 17° W 02:57:10 21° WNW 03:00:09 10° NNW visible
27 May 4.0 01:06:52 28° ESE 01:07:24 29° E 01:10:52 10° NNE visible
27 May 4.3 02:41:57 20° W 02:43:16 24° WNW 02:46:27 10° NNW visible
28 May 4.2 00:53:08 25° ESE 00:53:36 25° E 00:56:54 10° NNE visible
28 May 4.1 02:28:13 23° W 02:29:22 27° WNW 02:32:44 10° NNW visible
29 May 4.4 00:39:22 22° E 00:39:47 22° E 00:42:53 10° NE visible
29 May 3.9 02:14:27 27° WSW 02:15:28 31° WNW 02:18:59 10° N visible
30 May 4.6 00:25:35 19° E 00:25:58 19° E 00:28:50 10° NE visible
30 May 3.7 02:00:40 31° WSW 02:01:33 36° WNW 02:05:12 10° N visible
31 May 4.8 00:11:47 16° E 00:12:09 17° E 00:14:44 10° NE visible
31 May 3.5 01:46:52 36° WSW 01:47:39 41° WNW 01:51:25 10° N visible
